Chariton
Sunday 2:55 PM
Temperature72° (72°/57°)
Dew Point52°
Relative Humidity50
%
Visibility10
mi
Pressure1024.4
mb
Wind DirectionSSE
160°
Wind Speed13
mph
Precipitation Today0.00"

Last 30 Observations

Time PresWx Temp DP Feels RH% Vsby Pressure Ceiling Direction Speed 1h Precip
2:35 PM 72° 52° 50
%
10
mi
1024.7
mb
SSE
150°
9
mph
0.00"
2:15 PM 70° 52° 53
%
10
mi
1024.7
mb
SE
140°
10
mph
0.00"
1:55 PM 70° 52° 53
%
10
mi
1025.1
mb
9,000
ft
SE
140°
10
mph
0.00"
1:35 PM 70° 52° 53
%
10
mi
1025.1
mb
8,500
ft
SE
130°
10
mph
0.00"
1:15 PM 68° 52° 56
%
10
mi
1025.4
mb
9,000
ft
SE
140°
11
mph
0.00"
12:55 PM 68° 52° 56
%
10
mi
1025.7
mb
9,000
ft
SSE
150°
10
mph
0.00"
12:35 PM 68° 54° 60
%
10
mi
1025.7
mb
SSE
150°
10
mph
0.00"
12:15 PM 68° 52° 56
%
10
mi
1026.1
mb
SSE
160°
10
mph
0.00"
11:55 AM 68° 52° 56
%
10
mi
1026.4
mb
7,000
ft
SSE
150°
9
mph
0.00"
11:35 AM 68° 52° 56
%
10
mi
1026.1
mb
7,000
ft
SSE
160°
13
mph
0.00"
11:15 AM 68° 52° 56
%
10
mi
1026.1
mb
8,500
ft
SE
140°
11
mph
0.00"
10:55 AM 68° 54° 60
%
10
mi
1026.1
mb
8,500
ft
SE
140°
11
mph
0.00"
10:35 AM 66° 55° 68
%
10
mi
1026.1
mb
8,500
ft
SSE
150°
10
mph
0.00"
10:15 AM 64° 55° 73
%
10
mi
1026.1
mb
7,000
ft
SE
140°
9
mph
0.00"
9:55 AM 64° 55° 73
%
10
mi
1026.4
mb
7,000
ft
SE
140°
8
mph
0.00"
9:35 AM 63° 55° 77
%
10
mi
1026.4
mb
7,000
ft
SSE
150°
10
mph
0.00"
9:15 AM 63° 55° 77
%
10
mi
1026.4
mb
7,000
ft
SE
140°
9
mph
0.00"
8:55 AM 61° 57° 88
%
10
mi
1026.1
mb
7,000
ft
SE
130°
10
mph
0.00"
8:35 AM 61° 57° 88
%
10
mi
1026.4
mb
7,000
ft
SSE
150°
8
mph
0.00"
8:15 AM 59° 57° 94
%
10
mi
1026.8
mb
7,000
ft
SE
130°
6
mph
0.00"
7:55 AM 59° 57° 94
%
10
mi
1026.4
mb
7,000
ft
ESE
110°
7
mph
0.00"
7:35 AM 59° 59° 100
%
10
mi
1026.1
mb
7,000
ft
SE
130°
6
mph
0.00"
7:15 AM 59° 59° 100
%
10
mi
1026.1
mb
6,500
ft
ESE
110°
6
mph
0.00"
6:55 AM 59° 59° 100
%
10
mi
1025.7
mb
7,000
ft
SE
130°
5
mph
0.00"
6:35 AM 59° 59° 100
%
10
mi
1025.4
mb
6,500
ft
Calm 0.00"
6:15 AM 57° 57° 100
%
10
mi
1024.7
mb
SE
130°
6
mph
0.00"
5:55 AM 57° 57° 100
%
10
mi
1024.4
mb
E
100°
7
mph
0.00"
5:35 AM 57° 57° 100
%
10
mi
1024.4
mb
11,000
ft
E
90°
6
mph
0.00"
5:15 AM 57° 57° 100
%
10
mi
1024.4
mb
11,000
ft
E
90°
5
mph
0.00"
4:55 AM 57° 57° 100
%
10
mi
1024.1
mb
12,000
ft
E
90°
3
mph
0.00"